| time (UTC) | temp F | wind direction | speed knots | gust knots | rain 1hr in | rain 24hr in | rain mn in | humidity % | barometer mb |
| 20260505083043 | 44 | 246 | 0.9 | 3.5 | 0.00 | 0.19 | 0.01 | 87 | 1013.8 |
| 20260505081552 | 44 | 0 | 0.9 | 4.3 | 0.00 | 0.19 | 0.01 | 87 | 1014.0 |
| 20260505080042 | 44 | 0 | 0.0 | 4.3 | 0.00 | 0.19 | 0.01 | 86 | 1014.0 |
| 20260505074557 | 44 | 0 | 0.9 | 5.2 | 0.00 | 0.20 | 0.01 | 86 | 1013.9 |
| 20260505073038 | 44 | 246 | 0.0 | 2.6 | 0.00 | 0.20 | 0.01 | 84 | 1013.8 |
| 20260505071537 | 44 | 0 | 0.0 | 2.6 | 0.00 | 0.20 | 0.01 | 82 | 1013.6 |
| 20260505070037 | 45 | 0 | 0.0 | 4.3 | 0.00 | 0.20 | 0.01 | 80 | 1013.4 |
| 20260505064538 | 46 | 0 | 1.7 | 5.2 | 0.00 | 0.22 | 0.01 | 80 | 1013.3 |
| 20260505063040 | 46 | 0 | 0.9 | 7.0 | 0.00 | 0.22 | 0.01 | 79 | 1012.9 |
| 20260505061559 | 47 | 246 | 0.9 | 8.7 | 0.00 | 0.22 | 0.01 | 79 | 1012.9 |
| 20260505060044 | 47 | 246 | 1.7 | 10.4 | 0.00 | 0.22 | 0.01 | 78 | 1012.9 |
| 20260505054550 | 47 | 246 | 3.5 | 12.2 | 0.00 | 0.24 | 0.01 | 78 | 1012.8 |
| 20260505053037 | 47 | 246 | 0.9 | 7.8 | 0.00 | 0.24 | 0.01 | 78 | 1012.9 |
| 20260505051537 | 47 | 246 | 3.5 | 9.6 | 0.00 | 0.24 | 0.01 | 78 | 1013.0 |
| 20260505041537 | 48 | 246 | 3.5 | 9.6 | 0.01 | 0.26 | 0.01 | 75 | 1012.9 |
| 20260505040039 | 48 | 246 | 3.5 | 13.9 | 0.01 | 0.26 | 0.01 | 74 | 1012.9 |
| 20260505034544 | 49 | 246 | 4.3 | 11.3 | 0.00 | 0.27 | 0.00 | 74 | 1012.8 |
| 20260505033047 | 49 | 246 | 5.2 | 14.8 | 0.00 | 0.27 | 0.00 | 73 | 1012.4 |
| 20260505031537 | 49 | 246 | 6.1 | 13.9 | 0.00 | 0.27 | 0.00 | 72 | 1012.3 |
| 20260505030038 | 50 | 246 | 6.1 | 13.0 | 0.00 | 0.27 | 0.00 | 71 | 1012.0 |
| 20260505024601 | 50 | 246 | 6.1 | 20.0 | 0.00 | 0.29 | 0.27 | 70 | 1011.8 |
| 20260505023040 | 50 | 246 | 6.1 | 18.2 | 0.00 | 0.29 | 0.27 | 69 | 1011.8 |
| 20260505021556 | 50 | 246 | 7.0 | 14.8 | 0.00 | 0.29 | 0.27 | 69 | 1011.7 |
| 20260505020045 | 50 | 246 | 7.0 | 13.9 | 0.00 | 0.29 | 0.27 | 69 | 1011.3 |
| 20260505014539 | 50 | 246 | 5.2 | 13.0 | 0.00 | 0.31 | 0.27 | 69 | 1011.2 |
| 20260505013037 | 51 | 246 | 3.5 | 10.4 | 0.00 | 0.31 | 0.27 | 68 | 1011.2 |
| 20260505011548 | 51 | 246 | 2.6 | 18.2 | 0.00 | 0.31 | 0.27 | 67 | 1010.8 |
| 20260505010044 | 52 | 246 | 5.2 | 16.5 | 0.00 | 0.31 | 0.27 | 65 | 1010.7 |
| 20260505004543 | 52 | 246 | 4.3 | 13.0 | 0.01 | 0.33 | 0.27 | 64 | 1010.4 |
| 20260505003037 | 53 | 246 | 4.3 | 16.5 | 0.01 | 0.33 | 0.27 | 63 | 1010.3 |
| 20260505001537 | 53 | 246 | 6.1 | 13.9 | 0.01 | 0.33 | 0.27 | 63 | 1009.9 |
| 20260505000045 | 53 | 246 | 3.5 | 16.5 | 0.01 | 0.33 | 0.27 | 61 | 1009.5 |
| 20260504234540 | 54 | 246 | 7.0 | 15.6 | 0.00 | 0.35 | 0.26 | 60 | 1009.4 |
| 20260504233053 | 54 | 246 | 4.3 | 13.0 | 0.00 | 0.35 | 0.26 | 60 | 1009.3 |
| 20260504231537 | 55 | 246 | 5.2 | 13.0 | 0.00 | 0.35 | 0.26 | 60 | 1008.7 |
| 20260504230037 | 55 | 246 | 4.3 | 13.9 | 0.00 | 0.35 | 0.26 | 60 | 1008.6 |
| 20260504224543 | 55 | 246 | 4.3 | 13.9 | 0.00 | 0.38 | 0.26 | 60 | 1008.6 |
| 20260504223041 | 55 | 246 | 4.3 | 10.4 | 0.00 | 0.38 | 0.26 | 61 | 1008.7 |
| 20260504221545 | 56 | 246 | 3.5 | 13.0 | 0.01 | 0.38 | 0.26 | 60 | 1008.6 |
| 20260504220051 | 56 | 246 | 7.0 | 21.7 | 0.01 | 0.38 | 0.26 | 58 | 1008.7 |
| 20260504214537 | 57 | 246 | 1.7 | 14.8 | 0.01 | 0.41 | 0.26 | 57 | 1008.7 |
| 20260504213038 | 58 | 246 | 6.1 | 19.1 | 0.01 | 0.41 | 0.26 | 53 | 1008.9 |
| 20260504211538 | 60 | 246 | 8.7 | 15.6 | 0.00 | 0.40 | 0.25 | 49 | 1008.7 |
| 20260504210038 | 61 | 246 | 9.6 | 19.1 | 0.00 | 0.40 | 0.25 | 48 | 1008.4 |
| 20260504204553 | 62 | 246 | 4.3 | 13.0 | 0.00 | 0.43 | 0.25 | 53 | 1008.0 |
| 20260504203037 | 62 | 246 | 6.1 | 25.2 | 0.01 | 0.43 | 0.25 | 49 | 1007.8 |
| 20260504201537 | 62 | 246 | 7.8 | 19.1 | 0.01 | 0.43 | 0.25 | 46 | 1007.7 |
| 20260504200043 | 62 | 246 | 8.7 | 20.0 | 0.01 | 0.43 | 0.25 | 48 | 1007.7 |
| 20260504194542 | 61 | 246 | 8.7 | 22.6 | 0.01 | 0.46 | 0.25 | 48 | 1007.8 |
| 20260504193037 | 62 | 246 | 7.8 | 20.0 | 0.01 | 0.45 | 0.24 | 50 | 1007.6 |
| 20260504191540 | 62 | 246 | 9.6 | 23.5 | 0.01 | 0.45 | 0.24 | 49 | 1007.7 |
| 20260504190039 | 62 | 246 | 7.8 | 19.1 | 0.01 | 0.45 | 0.24 | 52 | 1007.5 |
| 20260504184538 | 62 | 246 | 7.0 | 19.1 | 0.01 | 0.48 | 0.24 | 50 | 1007.4 |
| 20260504183037 | 62 | 246 | 6.1 | 17.4 | 0.01 | 0.47 | 0.23 | 51 | 1007.3 |
| 20260504181542 | 62 | 246 | 6.1 | 18.2 | 0.01 | 0.47 | 0.23 | 48 | 1007.1 |
| 20260504180037 | 61 | 246 | 7.0 | 20.0 | 0.01 | 0.47 | 0.23 | 45 | 1007.4 |
| 20260504174538 | 62 | 246 | 8.7 | 18.2 | 0.02 | 0.50 | 0.23 | 45 | 1007.6 |
| 20260504173037 | 61 | 246 | 8.7 | 18.2 | 0.01 | 0.49 | 0.22 | 42 | 1007.5 |
| 20260504171538 | 61 | 246 | 10.4 | 18.2 | 0.01 | 0.49 | 0.22 | 38 | 1007.4 |